Helena, Arkansas, United States (72342)
Lat: 34.53N, Lon: 90.59W
Wx Zone: ARZ058
Local Info
Past Weather Observations for Sunday, February 22, 2015

NOTE: This archive is for the closest National Weather Service station to Helena. Information may differ from the station used for current weather conditions.

Click here for Long-term Archive

Time Weather Temperature Dewpoint Humidity Pressure Winds Precip Visibility
23:55
Mostly Cloudy
30°F / -1°C 27°F / -3°C 86% 30.48 in
(1032 mb)
N 9.2 mph
(N 15 kph)
- 10SM
23:35
Overcast
Unknown Precip
30°F / -1°C 27°F / -3°C 86% 30.48 in
(1032 mb)
N 9.2 mph
(N 15 kph)
- 10SM
23:15
Overcast
Unknown Precip
30°F / -1°C 27°F / -3°C 86% 30.45 in
(1031 mb)
N 9.2 mph
(N 15 kph)
- 10SM
22:55
Overcast
Unknown Precip
30°F / -1°C 28°F / -2°C 93% 30.45 in
(1031 mb)
N 9.2 mph
(N 15 kph)
0.02 in
(0.51 mm)
7SM
22:35
Overcast
Unknown Precip
32°F / 0°C 28°F / -2°C 87% 30.45 in
(1031 mb)
N 10.4 mph
(N 17 kph)
0.02 in
(0.51 mm)
7SM
22:15
Overcast
Unknown Precip
32°F / 0°C 28°F / -2°C 87% 30.48 in
(1032 mb)
N 8.1 mph
(N 13 kph)
0.01 in
(0.25 mm)
7SM
21:55
Overcast
Unknown Precip
32°F / 0°C 28°F / -2°C 87% 30.45 in
(1031 mb)
N 9.2 mph
(N 15 kph)
0.02 in
(0.51 mm)
5SM
21:35
Overcast
Unknown Precip
32°F / 0°C 28°F / -2°C 87% 30.45 in
(1031 mb)
N 9.2 mph
(N 15 kph)
0.02 in
(0.51 mm)
5SM
21:15
Overcast
Unknown Precip
32°F / 0°C 28°F / -2°C 87% 30.45 in
(1031 mb)
N 10.4 mph
(N 17 kph)
0.01 in
(0.25 mm)
5SM
20:55
Overcast
Unknown Precip
32°F / 0°C 30°F / -1°C 93% 30.45 in
(1031 mb)
N 12.7 mph
(N 20 kph)
0.04 in
(1.02 mm)
4SM
20:35
Overcast
Unknown Precip
32°F / 0°C 30°F / -1°C 93% 30.45 in
(1031 mb)
N 12.7 mph
(N 20 kph)
0.03 in
(0.76 mm)
4SM
20:15
Overcast
Unknown Precip
32°F / 0°C 30°F / -1°C 93% 30.42 in
(1030 mb)
N 13.8 mph
(N 22 kph)
0.01 in
(0.25 mm)
4SM
19:55
Overcast
Light Snow
32°F / 0°C 30°F / -1°C 93% 30.42 in
(1030 mb)
N 13.8 mph
(N 22 kph)
0.05 in
(1.27 mm)
3SM
19:35
Overcast
Light Snow
32°F / 0°C 30°F / -1°C 93% 30.42 in
(1030 mb)
N 15 mph
(N 24 kph)
0.03 in
(0.76 mm)
3SM
19:15
Overcast
Light Snow
32°F / 0°C 30°F / -1°C 93% 30.39 in
(1029 mb)
N 19.6 mph
(N 32 kph)
0.01 in
(0.25 mm)
3SM
18:55
Overcast
Light Snow
32°F / 0°C 32°F / 0°C 100% 30.39 in
(1029 mb)
N 19.6 mph
(N 32 kph)
0.03 in
(0.76 mm)
3SM
18:35
Overcast
Unknown Precip
32°F / 0°C 32°F / 0°C 100% 30.39 in
(1029 mb)
N 19.6 mph
(N 32 kph)
0.02 in
(0.51 mm)
4SM
18:15
Overcast
Rain
34°F / 1°C 32°F / 0°C 93% 30.39 in
(1029 mb)
N 20.7 mph
(N 33 kph)
0.01 in
(0.25 mm)
4SM
17:55
Overcast
Light Rain
34°F / 1°C 32°F / 0°C 93% 30.39 in
(1029 mb)
N 18.4 mph
(N 30 kph)
- 4SM
17:35
Overcast
Light Rain
34°F / 1°C 32°F / 0°C 93% 30.39 in
(1029 mb)
N 20.7 mph
(N 33 kph)
- 5SM
17:15
Overcast
Light Rain
34°F / 1°C 32°F / 0°C 93% 30.36 in
(1028 mb)
N 25.3 mph
(N 41 kph)
- 4SM
16:55
Mostly Cloudy
Drizzle
36°F / 2°C 32°F / 0°C 87% 30.36 in
(1028 mb)
N 24.2 mph
(N 39 kph)
- 5SM
16:35
Partly Cloudy
Hazy
36°F / 2°C 32°F / 0°C 87% 30.33 in
(1027 mb)
N 23 mph
(N 37 kph)
- 5SM
16:15
Partly Cloudy
Hazy
36°F / 2°C 32°F / 0°C 87% 30.33 in
(1027 mb)
N 20.7 mph
(N 33 kph)
- 5SM
15:55
Mostly Cloudy
Hazy
37°F / 3°C 32°F / 0°C 81% 30.3 in
(1026 mb)
N 21.9 mph
(N 35 kph)
- 5SM
15:35
Partly Cloudy
Hazy
37°F / 3°C 32°F / 0°C 81% 30.33 in
(1027 mb)
N 20.7 mph
(N 33 kph)
- 5SM
15:15
Clear
Hazy
39°F / 4°C 34°F / 1°C 81% 30.3 in
(1026 mb)
N 25.3 mph
(N 41 kph)
- 5SM
14:55
Clear
Hazy
39°F / 4°C 34°F / 1°C 81% 30.3 in
(1026 mb)
N 21.9 mph
(N 35 kph)
- 5SM
14:35
Clear
Hazy
41°F / 5°C 34°F / 1°C 76% 30.3 in
(1026 mb)
N 20.7 mph
(N 33 kph)
- 5SM
14:15
Clear
41°F / 5°C 34°F / 1°C 76% 30.3 in
(1026 mb)
N 18.4 mph
(N 30 kph)
- 7SM
13:55
Partly Cloudy
41°F / 5°C 34°F / 1°C 76% 30.3 in
(1026 mb)
N 18.4 mph
(N 30 kph)
- 7SM
13:35
Partly Cloudy
41°F / 5°C 34°F / 1°C 76% 30.3 in
(1026 mb)
N 20.7 mph
(N 33 kph)
- 7SM
13:15
Partly Cloudy
43°F / 6°C 36°F / 2°C 76% 30.3 in
(1026 mb)
N 19.6 mph
(N 32 kph)
- 7SM
12:55
Clear
43°F / 6°C 36°F / 2°C 76% 30.3 in
(1026 mb)
N 19.6 mph
(N 32 kph)
- 7SM
12:35
Partly Cloudy
41°F / 5°C 36°F / 2°C 81% 30.3 in
(1026 mb)
N 19.6 mph
(N 32 kph)
- 7SM
12:15
Partly Cloudy
43°F / 6°C 36°F / 2°C 76% 30.33 in
(1027 mb)
N 17.3 mph
(N 28 kph)
- 7SM
11:55
Partly Cloudy
41°F / 5°C 34°F / 1°C 76% 30.33 in
(1027 mb)
N 19.6 mph
(N 32 kph)
- 10SM
11:35
Clear
41°F / 5°C 34°F / 1°C 76% 30.33 in
(1027 mb)
N 21.9 mph
(N 35 kph)
- 10SM
11:15
Clear
41°F / 5°C 34°F / 1°C 76% 30.3 in
(1026 mb)
N 20.7 mph
(N 33 kph)
- 10SM
10:55
Clear
41°F / 5°C 34°F / 1°C 76% 30.3 in
(1026 mb)
N 20.7 mph
(N 33 kph)
- 10SM
10:35
Partly Cloudy
39°F / 4°C 34°F / 1°C 81% 30.3 in
(1026 mb)
N 18.4 mph
(N 30 kph)
- 10SM
10:15
Partly Cloudy
37°F / 3°C 32°F / 0°C 81% 30.3 in
(1026 mb)
N 17.3 mph
(N 28 kph)
- 10SM
09:55
Partly Cloudy
37°F / 3°C 32°F / 0°C 81% 30.3 in
(1026 mb)
N 19.6 mph
(N 32 kph)
- 10SM
09:35
Partly Cloudy
37°F / 3°C 32°F / 0°C 81% 30.3 in
(1026 mb)
N 19.6 mph
(N 32 kph)
- 10SM
09:15
Partly Cloudy
37°F / 3°C 32°F / 0°C 81% 30.3 in
(1026 mb)
N 17.3 mph
(N 28 kph)
- 10SM
08:55
Mostly Cloudy
37°F / 3°C 32°F / 0°C 81% 30.3 in
(1026 mb)
NNE 15 mph
(NNE 24 kph)
- 10SM
08:35
Overcast
36°F / 2°C 32°F / 0°C 87% 30.3 in
(1026 mb)
N 13.8 mph
(N 22 kph)
- 10SM
08:15
Overcast
36°F / 2°C 32°F / 0°C 87% 30.27 in
(1025 mb)
N 15 mph
(N 24 kph)
- 10SM
07:55
Overcast
36°F / 2°C 32°F / 0°C 87% 30.24 in
(1024 mb)
NE 13.8 mph
(NE 22 kph)
- 10SM
07:35
Overcast
34°F / 1°C 32°F / 0°C 93% 30.24 in
(1024 mb)
NE 16.1 mph
(NE 26 kph)
- 7SM
07:15
Overcast
34°F / 1°C 32°F / 0°C 93% 30.24 in
(1024 mb)
NNE 15 mph
(NNE 24 kph)
- 7SM
06:55
Overcast
34°F / 1°C 32°F / 0°C 93% 30.24 in
(1024 mb)
NNE 15 mph
(NNE 24 kph)
- 10SM
06:35
Overcast
34°F / 1°C 32°F / 0°C 93% 30.24 in
(1024 mb)
NNE 12.7 mph
(NNE 20 kph)
- 7SM
06:15
Overcast
34°F / 1°C 32°F / 0°C 93% 30.24 in
(1024 mb)
NNE 13.8 mph
(NNE 22 kph)
- 7SM
05:55
Overcast
34°F / 1°C 32°F / 0°C 93% 30.24 in
(1024 mb)
N 16.1 mph
(N 26 kph)
- 7SM
05:35
Overcast
34°F / 1°C 32°F / 0°C 93% 30.24 in
(1024 mb)
N 15 mph
(N 24 kph)
- 7SM
05:15
Overcast
34°F / 1°C 32°F / 0°C 93% 30.24 in
(1024 mb)
N 13.8 mph
(N 22 kph)
- 7SM
04:55
Overcast
34°F / 1°C 32°F / 0°C 93% 30.21 in
(1023 mb)
N 11.5 mph
(N 19 kph)
- 7SM
04:35
Overcast
34°F / 1°C 32°F / 0°C 93% 30.21 in
(1023 mb)
N 12.7 mph
(N 20 kph)
- 7SM
04:15
Overcast
34°F / 1°C 32°F / 0°C 93% 30.21 in
(1023 mb)
N 13.8 mph
(N 22 kph)
- 7SM
03:55
Overcast
34°F / 1°C 32°F / 0°C 93% 30.18 in
(1022 mb)
N 10.4 mph
(N 17 kph)
- 7SM
03:35
Overcast
34°F / 1°C 32°F / 0°C 93% 30.18 in
(1022 mb)
N 12.7 mph
(N 20 kph)
- 7SM
03:15
Overcast
34°F / 1°C 32°F / 0°C 93% 30.15 in
(1021 mb)
NNE 15 mph
(NNE 24 kph)
- 7SM
02:55
Overcast
34°F / 1°C 32°F / 0°C 93% 30.18 in
(1022 mb)
NNE 15 mph
(NNE 24 kph)
- 7SM
02:35
Overcast
Fog And Mist
34°F / 1°C 32°F / 0°C 93% 30.18 in
(1022 mb)
N 15 mph
(N 24 kph)
- 5SM
02:15
Overcast
Fog And Mist
34°F / 1°C 32°F / 0°C 93% 30.18 in
(1022 mb)
N 13.8 mph
(N 22 kph)
- 4SM
01:55
Overcast
Fog And Mist
34°F / 1°C 32°F / 0°C 93% 30.18 in
(1022 mb)
N 10.4 mph
(N 17 kph)
- 5SM
01:35
Overcast
34°F / 1°C 32°F / 0°C 93% 30.18 in
(1022 mb)
N 15 mph
(N 24 kph)
- 7SM
01:15
Overcast
34°F / 1°C 32°F / 0°C 93% 30.18 in
(1022 mb)
N 13.8 mph
(N 22 kph)
- 7SM
00:55
Overcast
Fog And Mist
34°F / 1°C 32°F / 0°C 93% 30.18 in
(1022 mb)
N 13.8 mph
(N 22 kph)
- 5SM
00:35
Overcast
34°F / 1°C 32°F / 0°C 93% 30.18 in
(1022 mb)
N 12.7 mph
(N 20 kph)
- 7SM
00:15
Overcast
34°F / 1°C 32°F / 0°C 93% 30.15 in
(1021 mb)
N 12.7 mph
(N 20 kph)
- 7SM
Time Weather Temperature Dewpoint Humidity Pressure Winds Precip Visibility


Weather for websites

WeatherForYou.com, LLC is not responsible for any damages or problems caused by this service. Current weather conditions are obtained from the closest station including government and personal stations which may have varying degrees of accuracy. Weather forecasts are derived from the NOAA NDFD. Like all things, this site belongs to Jesus Christ... He just trusts me to maintain it. If you have any questions or comments email webmaster@weatherforyou.com

Copyright © 2015, WeatherForYou.com LLC. All rights reserved.